EW8078 Weather Reports


time (UTC)temp
F
wind
direction
speed
knots
gust
knots
rain 1hr
in
rain 24hr
in
rain mn
in
humidity
%
barometer
mb
20260508140047 55 84 0.0 4.3 0.00 0.00 0.00 58 1010.5
20260508134541 53 226 0.9 7.8 0.00 0.00 0.00 62 1010.5
20260508133051 52 222 1.7 10.4 0.00 0.00 0.00 66 1010.7
20260508131528 50 268 3.5 8.7 0.00 0.00 0.00 70 1010.7
20260508130023 48 290 3.5 8.7 0.00 0.00 0.00 74 1011.0
20260508124518 46 299 0.9 3.5 0.00 0.01 0.00 78 1011.1
20260508123014 46 234 0.0 4.3 0.00 0.01 0.00 83 1011.0
20260508121511 44 260 0.0 0.0 0.00 0.01 0.00 85 1011.4
20260508120005 43 259 0.0 0.9 0.00 0.01 0.00 88 1011.0
20260508114601 42 243 0.0 0.0 0.00 0.05 0.00 87 1010.3
20260508113108 42 243 0.0 0.0 0.00 0.05 0.00 86 1010.0
20260508111602 43 243 0.0 0.0 0.00 0.05 0.00 85 1009.9
20260508110054 43 243 0.0 0.9 0.00 0.05 0.00 84 1010.0
20260508104542 43 314 0.0 0.0 0.00 0.10 0.00 82 1010.0
20260508103041 44 291 0.0 1.7 0.00 0.10 0.00 80 1009.6
20260508101534 46 302 0.0 0.9 0.00 0.10 0.00 76 1009.4
20260508100031 0 0.0 0.0 0.00 0.10 0.00 1008.8
20260508094524 -90 252 1.7 4.3 0.00 0.14 0.00 75 1009.0
20260508093027 46 272 0.9 3.5 0.00 0.14 0.00 75 1008.8
20260508091521 46 230 0.9 2.6 0.00 0.14 0.00 75 1008.6
20260508090024 46 236 0.9 2.6 0.00 0.14 0.00 75 1008.9
20260508084516 46 238 0.9 2.6 0.00 0.19 0.00 74 1009.1
20260508083013 45 242 0.0 0.9 0.00 0.19 0.00 79 1009.3
20260508081513 45 231 0.0 1.7 0.00 0.19 0.00 78 1009.4
20260508080014 46 248 0.0 0.0 0.00 0.19 0.00 76 1009.6
20260508074518 46 270 0.0 2.6 0.00 0.22 0.00 77 1009.9
20260508073008 45 246 0.0 0.9 0.00 0.22 0.00 78 1010.2
20260508071505 47 52 0.0 0.0 0.00 0.22 0.00 77 1010.0
20260508070104 48 318 0.0 0.9 0.00 0.22 0.00 71 1009.9
20260508064558 49 271 0.9 4.3 0.00 0.23 0.00 71 1009.7
20260508063154 48 231 0.9 4.3 0.00 0.23 0.00 74 1009.5
20260508061552 48 257 0.9 2.6 0.00 0.23 0.00 76 1009.4
20260508060050 48 283 0.0 0.9 0.00 0.23 0.00 79 1009.5
20260508054549 49 232 0.0 0.0 0.00 0.23 0.23 79 1009.6
20260508053113 51 239 0.0 0.9 0.00 0.23 0.23 76 1010.6
20260508051547 53 262 0.0 1.7 0.00 0.23 0.23 61 1010.8
20260508050047 53 285 0.0 0.9 0.00 0.23 0.23 62 1009.9
20260508044546 53 192 0.0 0.0 0.00 0.23 0.23 61 1009.9
20260508043046 54 190 0.0 0.0 0.00 0.23 0.23 57 1009.8
20260508041610 55 238 0.0 0.9 0.00 0.23 0.23 54 1009.9
20260508040104 56 297 0.0 1.7 0.00 0.23 0.23 51 1010.1
20260508034544 56 297 0.0 3.5 0.00 0.23 0.23 47 1010.2
20260508033042 57 257 0.0 0.9 0.00 0.23 0.23 47 1009.4
20260508031542 58 269 0.9 4.3 0.00 0.23 0.23 42 1009.1
20260508030042 59 299 2.6 8.7 0.00 0.23 0.23 41 1009.0
20260508024546 58 309 3.5 7.8 0.00 0.23 0.23 43 1009.0
20260508023041 59 285 1.7 6.1 0.00 0.23 0.23 42 1009.0
20260508021541 60 258 0.9 5.2 0.00 0.23 0.23 39 1008.8
20260508020046 61 214 0.9 4.3 0.00 0.23 0.23 37 1009.2
20260508014539 61 233 0.0 0.9 0.00 0.24 0.23 38 1008.8
20260508013039 62 259 0.0 0.9 0.00 0.24 0.23 35 1008.6
20260508011549 62 302 0.9 5.2 0.00 0.24 0.23 33 1008.6
20260508010038 61 275 0.0 0.0 0.00 0.24 0.23 34 1008.6
20260508004537 62 236 0.0 0.0 0.00 0.27 0.23 35 1008.3
20260508003038 62 259 0.0 0.0 0.00 0.27 0.23 33 1008.1
20260508001540 62 231 0.0 0.0 0.00 0.27 0.23 36 1008.0
20260508000034 63 231 0.0 0.0 0.00 0.27 0.23 32 1008.4
20260507234533 63 229 0.0 0.0 0.00 0.33 0.23 30 1008.4
20260507233052 63 245 0.0 0.0 0.00 0.33 0.23 34 1008.3
20260507231536 64 203 0.0 0.0 0.00 0.33 0.23 32 1008.5
20260507230029 64 203 0.0 0.0 0.00 0.33 0.23 33 1008.6
20260507224530 65 199 0.0 0.0 0.00 0.43 0.23 28 1008.7
20260507223026 66 171 0.0 2.6 0.00 0.43 0.23 26 1008.9
20260507221524 67 298 0.0 2.6 0.00 0.43 0.23 27 1009.2
20260507220020 67 285 0.0 3.5 0.00 0.43 0.23 26 1009.6
20260507214517 67 264 0.0 3.5 0.00 0.49 0.23 27 1010.2
20260507213019 66 184 0.0 3.5 0.00 0.49 0.23 27 1010.6
20260507211508 67 236 0.9 4.3 0.00 0.49 0.23 26 1011.0
20260507210007 66 96 0.0 2.6 0.00 0.49 0.23 28 1011.3
20260507204502 66 115 0.0 1.7 0.00 0.51 0.23 29 1011.5
20260507203103 65 169 0.0 4.3 0.00 0.51 0.23 29 1012.0
20260507201557 65 99 0.0 3.5 0.00 0.51 0.23 30 1012.2
20260507200054 65 213 0.0 3.5 0.00 0.51 0.23 30 1012.5
20260507194616 65 172 0.9 4.3 0.00 0.52 0.23 28 1012.7
20260507193050 66 190 0.0 4.3 0.00 0.52 0.23 26 1012.8
20260507191550 66 309 0.9 7.8 0.00 0.52 0.23 27 1013.3
20260507190052 67 170 0.0 2.6 0.00 0.52 0.23 28 1013.6
20260507184540 65 146 0.0 3.5 0.00 0.52 0.23 32 1013.6
20260507183044 64 27 0.0 1.7 0.00 0.52 0.23 32 1013.9
20260507181533 61 161 0.0 1.7 0.00 0.52 0.23 34 1014.2
20260507180034 59 229 0.0 0.0 0.00 0.52 0.23 37 1014.5
20260507174526 58 279 0.0 0.0 0.00 0.52 0.23 40 1014.8
20260507173035 57 279 0.0 0.0 0.00 0.52 0.23 42 1015.1
20260507171538 57 279 0.0 0.0 0.00 0.52 0.23 39 1015.4
20260507170021 57 279 0.0 1.7 0.00 0.52 0.23 35 1015.6
20260507164529 56 271 0.0 5.2 0.00 0.52 0.23 36 1015.7
20260507163020 55 236 0.9 8.7 0.00 0.52 0.23 36 1015.5
20260507161527 54 249 3.5 9.6 0.00 0.52 0.23 37 1015.4
20260507160022 53 234 0.9 9.6 0.00 0.52 0.23 38 1015.4
20260507154518 53 50 0.0 9.6 0.00 0.53 0.23 40 1016.1
20260507153017 55 286 3.5 8.7 0.00 0.53 0.23 38 1015.9
20260507151516 57 261 1.7 6.1 0.00 0.53 0.23 36 1015.8
20260507150013 58 167 0.9 7.8 0.00 0.53 0.23 35 1016.3
20260507144510 56 4 0.9 6.1 0.00 0.53 0.23 38 1016.1
20260507143018 55 300 0.0 7.0 0.00 0.53 0.23 40 1016.0
20260507141508 56 96 0.9 7.0 0.00 0.53 0.23 38 1016.1